Flag for France Weather past 2 weeks in Strasbourg, France

55 °F


Feels Like: 53 °F
Forecast: 50 / 62 °F
Wind: 8 mph from Northeast

Location: Strasbourg Airport

Current Time: Oct 9, 2015 at 10:47:31 PM

Latest Report: Oct 9, 2015 at 10:00 PM

Visibility: N/A

Pressure: 30.09 "Hg

Humidity: 77%

Dew point: 48 °F

Location of StrasbourgLocation

Historic Weather in Strasbourg — Graph


Strasbourg temperature yesterday

Maximum temperature yesterday: 61 °F (at 1:30 PM)
Minimum temperature yesterday: 50 °F (at 4:00 AM)
Average temperature yesterday: 55 °F

Past Weeks' High & Low Weather Summary

High72 °F (Oct 3, 3:00 PM)100% (Oct 5, 4:30 AM)30.51 "Hg (Oct 5, 4:30 AM)
Low41 °F (Oct 2, 5:30 AM)34% (Sep 28, 4:30 PM)29.68 "Hg (Oct 6, 8:30 AM)
Average57 °F70%30.15 "Hg
* Reported Sep 24 10:00 PM — Oct 9 10:00 PM, Strasbourg, Weather by CustomWeather, © 2015

Note: Actual official high and low records may vary slightly from our data, if they occured in-between our weather recording intervals... More about our weather records


Strasbourg weather history for previous 24 hours

Time TempWeatherWind HumidityBarometerVisibility
10:00 PM
Fri, Oct 9
55 °FOvercast.8 mph77%30.09 "HgN/A
9:30 PM57 °FClear.8 mph67%30.09 "Hg10 mi
9:00 PM57 °FClear.9 mph67%30.09 "Hg10 mi
8:30 PM57 °FClear.9 mph72%30.07 "Hg10 mi
8:00 PM57 °FOvercast.10 mph72%30.07 "HgN/A
7:30 PM57 °FSunny.10 mph72%30.07 "Hg10 mi
7:00 PM59 °FOvercast.10 mph72%30.07 "HgN/A
6:30 PM61 °FMore clouds than sun.10 mph68%30.07 "HgN/A
6:00 PM61 °FMore clouds than sun.10 mph68%30.07 "HgN/A
5:30 PM63 °FOvercast.12 mph64%30.07 "HgN/A
4:30 PM64 °FMostly cloudy.9 mph56%30.07 "HgN/A
4:00 PM64 °FOvercast.12 mph60%30.07 "HgN/A
3:30 PM64 °FOvercast.12 mph52%30.07 "HgN/A
3:00 PM64 °FPassing clouds.9 mph56%30.09 "HgN/A
2:30 PM64 °FPassing clouds.10 mph56%30.09 "HgN/A
2:00 PM64 °FPassing clouds.8 mph60%30.09 "HgN/A
1:30 PM63 °FPartly sunny.8 mph68%30.09 "HgN/A
1:00 PM63 °FPartly sunny.8 mph64%30.12 "HgN/A
12:30 PM61 °FPartly sunny.8 mph68%30.12 "HgN/A
12:00 PM57 °FMore clouds than sun.8 mph82%30.12 "HgN/A
11:30 AM55 °FOvercast.6 mph82%30.12 "HgN/A
11:00 AM55 °FMostly cloudy.6 mph82%30.15 "HgN/A
10:30 AM54 °FMostly cloudy.6 mph88%30.15 "HgN/A
10:00 AM54 °FMostly cloudy.5 mph88%30.15 "HgN/A
9:30 AM54 °FOvercast.5 mph88%30.15 "HgN/A
9:00 AM54 °FMostly cloudy.6 mph88%30.12 "HgN/A
8:30 AM54 °FMostly cloudy.6 mph82%30.12 "HgN/A
8:00 AM52 °FMostly cloudy.5 mph88%30.12 "HgN/A
7:30 AM54 °FMostly cloudy.5 mph82%30.12 "HgN/A
7:00 AM52 °FMostly cloudy.5 mph88%30.12 "HgN/A
6:30 AM52 °FMostly cloudy.3 mph88%30.12 "HgN/A
6:00 AM52 °FOvercast.5 mph88%30.12 "HgN/A
5:30 AM54 °FMostly cloudy.2 mph82%30.12 "HgN/A
5:00 AM54 °FOvercast.5 mph82%30.12 "HgN/A
4:30 AM54 °FClear.5 mph82%30.12 "Hg10 mi
4:00 AM54 °FClear.5 mph82%30.12 "Hg10 mi
3:30 AM54 °FClear.5 mph82%30.12 "Hg10 mi
3:00 AM54 °FClear.3 mph82%30.15 "Hg10 mi
2:30 AM54 °FOvercast.3 mph82%30.15 "HgN/A
2:00 AM54 °FClear.2 mph82%30.15 "Hg10 mi
1:30 AM54 °FClear.3 mph82%30.15 "Hg10 mi
1:00 AM54 °FClear.3 mph82%30.15 "Hg10 mi
12:30 AM54 °FClear.3 mph82%30.15 "Hg10 mi
12:00 AM54 °FClear.No wind82%30.15 "Hg10 mi
11:30 PM
Thu, Oct 8
54 °FClear.1 mph88%30.15 "Hg10 mi
11:00 PM54 °FClear.5 mph82%30.15 "Hg10 mi
10:30 PM54 °FClear.5 mph88%30.15 "Hg10 mi
10:00 PM54 °FLow clouds.2 mph82%30.15 "HgN/A
Weather by CustomWeather, © 2015

See weather overviewHow to use our weather pages